www.pogodaiklimat.ru
ПОГОДА в Приштине

Архив погоды в Приштине (Косово)

Время
(UTC), дата
10 21.05
11 21.05
12 21.05
13 21.05
14 21.05
15 21.05
16 21.05
17 21.05
18 21.05
19 21.05
20 21.05
21 21.05
22 21.05
23 21.05
00 22.05
01 22.05
02 22.05
03 22.05
04 22.05
05 22.05
06 22.05
07 22.05
08 22.05
09 22.05
10 22.05
11 22.05
12 22.05
13 22.05
14 22.05
15 22.05
16 22.05
17 22.05
18 22.05
19 22.05
20 22.05
21 22.05
22 22.05
23 22.05
00 23.05
01 23.05
02 23.05
03 23.05
04 23.05
05 23.05
06 23.05
07 23.05
08 23.05
09 23.05
10 23.05
11 23.05
12 23.05
13 23.05
14 23.05
15 23.05
16 23.05
17 23.05
18 23.05
19 23.05
20 23.05
21 23.05
22 23.05
23 23.05
00 24.05
01 24.05
02 24.05
03 24.05
04 24.05
05 24.05
06 24.05
07 24.05
08 24.05
09 24.05
10 24.05
11 24.05
12 24.05
13 24.05
14 24.05
15 24.05
16 24.05
17 24.05
18 24.05
19 24.05
20 24.05
21 24.05
22 24.05
23 24.05
00 25.05
01 25.05
02 25.05
03 25.05
04 25.05
05 25.05
06 25.05
07 25.05
08 25.05
09 25.05
10 25.05
11 25.05
12 25.05
13 25.05
14 25.05
15 25.05
16 25.05
17 25.05
18 25.05
19 25.05
20 25.05
21 25.05
22 25.05
23 25.05
00 26.05
01 26.05
02 26.05
03 26.05
04 26.05
05 26.05
06 26.05
07 26.05
08 26.05
09 26.05
10 26.05
11 26.05
12 26.05
13 26.05
14 26.05
15 26.05
16 26.05
17 26.05
18 26.05
19 26.05
20 26.05
21 26.05
22 26.05
23 26.05
00 27.05
01 27.05
02 27.05
03 27.05
04 27.05
05 27.05
06 27.05
07 27.05
08 27.05
09 27.05
10 27.05
11 27.05
12 27.05
13 27.05
14 27.05
15 27.05
16 27.05
17 27.05
18 27.05
19 27.05
20 27.05
21 27.05
22 27.05
23 27.05
00 28.05
01 28.05
02 28.05
03 28.05
04 28.05
05 28.05
06 28.05
07 28.05
08 28.05
09 28.05
10 28.05
23 30.05
Ветер
(напр.,м/с)
Видим. Явления Облачность Т
(С)
Тd
(С)
f
(%)
Тe
(С)
Тes
(С)
Комфортность P
(гПа)
Po
(гПа)
Тmin
(С)
Tmax
(С)
R
(мм)
R24
(мм)
S
(см)
ЮВ 9 10 км 2/2 900 м +23.0 +17.0 69 +28 +29 душно 1013.0 951.4
ЮВ 9 10 км 2/2 900 м +24.0 +17.0 65 +28 +29 душно 1012.0 950.6
ЮВ 9 10 км 5/5 990 м +25.0 +17.0 61 +29 +30 душно 1011.0 949.9
ЮВ 8 10 км 5/5 900 м +24.0 +17.0 65 +28 +29 душно 1011.0 949.7
ЮВ 5 10 км 8/8 750 м +22.0 +17.0 73 +26 +27 душно 1011.0 949.3
ЮВ 4 10 км 5/5 900 м +23.0 +17.0 69 +28 +30 душно 1010.0 948.6
ЮВ 7 10 км гроза без осадков 8/8 900 м
[Cb]
+21.0 +17.0 78 +25 +25 комфорт 1010.0 948.1
ЮВ 4 10 км гроза без осадков 8/8 750 м
[Cb]
+20.0 +16.0 78 +23 +23 комфорт 1011.0 948.9
ЮВ 2 10 км гроза, ливневой дождь 8/8 900 м
[Cb]
+18.0 +16.0 88 +19 +19 1012.0 949.4
Ю 2 10 км гроза без осадков 8/8 900 м
[Cb]
+18.0 +17.0 94 +19 +19 1013.0 950.3
Ю 3 10 км 5/5 1200 м +18.0 +16.0 88 +18 +18 1013.0 950.3
Ю 2 10 км 8/8 1200 м +17.0 +16.0 94 +17 +17 1013.0 950.1
Ю 3 10 км ясно +16.0 +16.0 100 +15 +15 1013.0 949.9
Ю 2 10 км ясно +16.0 +15.0 94 +16 +16 1013.0 949.9
Ю 2 10 км 2/0 2700 м
[Ac]
+15.0 +15.0 100 +15 +15 1013.0 949.7
ЮЗ 2 10 км ясно +16.0 +15.0 94 +16 +16 1013.0 949.9
Ю 3 10 км ясно +15.0 +15.0 100 +14 +14 1012.0 948.7
нст 1 н/о 8/8 600 м +14.0 +14.0 100 +14 +14 1013.0 949.4
Ю 1 н/о 5/5 450 м +14.0 +14.0 100 +14 +14 1012.0 948.5
Ю 3 н/о 2/2 900 м +16.0 +15.0 94 +15 +17 1013.0 949.9
ЮВ 3 10 км 2/2 900 м +18.0 +16.0 88 +18 +22 1013.0 950.3
Ю 3 10 км 2/2 1500 м +19.0 +16.0 83 +21 +27 комфорт 1013.0 950.5
нст 1 10 км 5/5 750 м +20.0 +16.0 78 +24 +32 комфорт 1013.0 950.7
З 6 10 км 5/5 600 м +21.0 +15.0 69 +24 +27 комфорт 1013.0 950.9
ЮЗ 5 10 км 2/2 1050 м +22.0 +15.0 64 +25 +33 комфорт 1013.0 951.1
ЮЗ 4 10 км 2/2 1050 м +23.0 +13.0 53 +26 +36 жарко 1012.0 950.3
ЮЗ 5 10 км 8/2 1050 м
[Ac]
+22.0 +11.0 50 +24 +28 комфорт 1012.0 950.1
ЮЗ 2 10 км 8/2 1050 м
[Ac]
+21.0 +12.0 56 +24 +29 комфорт 1012.0 949.9
нст 2 10 км 8/2 1050 м
[Ac]
+21.0 +13.0 60 +24 +28 комфорт 1011.0 949.0
ЮЗ 8 10 км 8/2 1050 м
[Ac]
+23.0 +12.0 50 +26 +26 жарко 1011.0 949.4
ЮЗ 7 10 км 5/2 1050 м
[Ac]
+22.0 +11.0 50 +24 +24 комфорт 1011.0 949.2
ЮЗ 6 10 км 2/2 1500 м +21.0 +10.0 49 +23 +23 комфорт 1012.0 949.9
С 5 10 км 8/0 2250 м
[Ac]
+17.0 +13.0 77 +16 +16 1013.0 950.0
СВ 3 10 км 8/0 2100 м
[Ac]
+17.0 +11.0 68 +17 +17 1013.0 950.0
СЗ 3 10 км 8/8 1950 м +16.0 +10.0 68 +16 +16 1014.0 950.7
ЮЗ 2 10 км 2/2 1650 м +15.0 +11.0 77 +15 +15 1014.0 950.5
Ю 1 10 км ясно +14.0 +11.0 82 +14 +14 1014.0 950.3
СЗ 2 10 км 5/0 2700 м
[Ac]
+13.0 +10.0 82 +12 +12 1014.0 950.0
С 2 10 км 8/0 2400 м
[Ac]
+12.0 +11.0 94 +11 +11 1014.0 949.8
В 3 10 км 8/0 2400 м
[Ac]
+12.0 +11.0 94 +10 +10 1014.0 949.8
СЗ 3 10 км ясно +12.0 +11.0 94 +10 +10 1014.0 949.8
нст 1 10 км 5/5 1500 м +11.0 +11.0 100 +11 +11 1015.0 950.6
С 3 10 км 5/5 1500 м +11.0 +11.0 100 +9 +9 1015.0 950.6
СЗ 2 10 км 8/8 1500 м +12.0 +11.0 94 +11 +11 1016.0 951.7
СЗ 2 10 км 8/5 1050 м
[Ac]
+15.0 +12.0 82 +15 +16 1016.0 952.4
СВ 2 10 км 2/0 2550 м
[Ac]
+17.0 +12.0 72 +17 +25 1016.0 952.8
СВ 2 10 км 2/2 900 м +18.0 +12.0 68 +19 +29 1016.0 953.0
С 3 10 км 5/5 1200 м +19.0 +11.0 60 +20 +27 1016.0 953.2
З 2 10 км 8/8 1050 м +21.0 +10.0 49 +23 +27 комфорт 1015.0 952.7
С 7 10 км 8/8 900 м +17.0 +9.0 59 +16 +17 1016.0 952.8
ЮВ 2 10 км слаб. дождь 5/5 900 м
[Ns]
+17.0 +11.0 68 +17 +26 1016.0 952.8
С 4 10 км 8/8 1050 м +19.0 +12.0 64 +20 +22 1016.0 953.2
СВ 3 10 км 5/5 1200 м +20.0 +12.0 60 +22 +26 комфорт 1016.0 953.5
С 4 10 км 2/0 2250 м
[Ac]
+20.0 +12.0 60 +22 +25 комфорт 1016.0 953.5
З 3 10 км 8/8 1050 м +19.0 +12.0 64 +20 +21 1016.0 953.2
З 4 10 км слаб. ливневой дождь 8/8 1050 м
[Cb]
+18.0 +14.0 77 +18 +18 1016.0 953.1
СЗ 3 10 км 8/8 1500 м +16.0 +13.0 82 +16 +16 1016.0 952.6
С 4 10 км 8/8 1050 м +16.0 +13.0 82 +15 +15 1017.0 953.6
СЗ 3 10 км 5/5 1050 м +15.0 +13.0 88 +14 +14 1018.0 954.3
СЗ 2 10 км 8/8 1050 м +15.0 +13.0 88 +15 +15 1018.0 954.3
СЗ 3 10 км 2/2 1050 м +14.0 +12.0 88 +13 +13 1018.0 954.1
С 2 10 км ясно +12.0 +11.0 94 +11 +11 1018.0 953.6
нст 1 10 км ясно +11.0 +11.0 100 +11 +11 1018.0 953.4
нст 1 10 км ясно +11.0 +10.0 94 +11 +11 1018.0 953.4
СЗ 2 10 км ясно +10.0 +10.0 100 +8 +8 1018.0 953.1
СЗ 3 н/о 2/2 450 м +10.0 +9.0 93 +8 +8 1018.0 953.1
С 2 н/о 2/2 300 м +10.0 +9.0 93 +8 +9 1019.0 954.1
нст 1 н/о 2/2 450 м +12.0 +11.0 94 +12 +14 1019.0 954.5
нст 1 10 км ясно +14.0 +12.0 88 +14 +21 1019.0 955.0
В 2 10 км 5/0 2700 м
[Ac]
+16.0 +13.0 82 +16 +22 1019.0 955.4
В 2 10 км 5/2 1500 м
[Ac]
+18.0 +14.0 77 +19 +27 1019.0 955.9
С 4 10 км 5/5 900 м +20.0 +13.0 64 +22 +28 комфорт 1019.0 956.3
С 4 10 км 5/5 1200 м +21.0 +13.0 60 +24 +30 комфорт 1019.0 956.5
С 5 н/о 5/5 1050 м +21.0 +12.0 56 +23 +28 комфорт 1019.0 956.5
С 3 10 км 5/5 900 м +21.0 +12.0 56 +24 +31 комфорт 1019.0 956.5
С 3 10 км 5/5 1050 м +22.0 +11.0 50 +24 +30 комфорт 1018.0 955.7
С 3 10 км 5/5 900 м +22.0 +12.0 53 +24 +29 комфорт 1018.0 955.7
С 5 10 км слаб. ливневой дождь 8/5 900 м
[Ac Cb]
+21.0 +12.0 56 +23 +24 комфорт 1019.0 956.5
З 3 10 км 5/5 1050 м +19.0 +15.0 78 +20 +22 1019.0 956.1
С 4 10 км 2/0 2400 м
[Ac]
+19.0 +14.0 73 +20 +20 1019.0 956.1
С 4 10 км 2/0 2700 м
[Ac]
+18.0 +14.0 77 +18 +18 1019.0 955.9
З 3 10 км ясно +16.0 +13.0 82 +16 +16 1020.0 956.4
С 2 10 км ясно +15.0 +13.0 88 +15 +15 1020.0 956.2
З 2 10 км ясно +14.0 +12.0 88 +13 +13 1020.0 955.9
нст 1 10 км ясно +14.0 +12.0 88 +14 +14 1020.0 955.9
З 1 10 км ясно +12.0 +11.0 94 +12 +12 1020.0 955.5
З 3 10 км ясно +11.0 +10.0 94 +9 +9 1020.0 955.2
С 2 10 км ясно +11.0 +10.0 94 +10 +10 1020.0 955.2
СЗ 2 10 км ясно +10.0 +10.0 100 +8 +8 1020.0 955.0
СЗ 1 10 км ясно +10.0 +10.0 100 +9 +9 1019.0 954.1
нст 1 н/о туман поземный 5/5 90 м
[Frnb]
+9.0 +9.0 100 +8 +8 1020.0 954.8
нст 1 н/о туман, небо видно 8/8 60 м
[St]
+10.0 +10.0 100 +9 +10 1020.0 955.0
нст 1 н/о дымка 5/5 90 м
[Frnb]
+12.0 +11.0 94 +12 +15 1020.0 955.5
СВ 3 10 км 2/2 600 м +15.0 +13.0 88 +14 +21 1019.0 955.2
С 2 10 км 2/2 1500 м +18.0 +13.0 73 +19 +29 1019.0 955.9
нст 1 10 км 2/2 1500 м +20.0 +13.0 64 +23 +39 комфорт 1018.0 955.4
ЮВ 2 10 км 2/2 900 м +21.0 +14.0 64 +25 +40 комфорт 1018.0 955.6
В 3 10 км 5/5 1200 м +22.0 +14.0 60 +25 +33 комфорт 1018.0 955.8
нст 2 10 км 5/5 1500 м +23.0 +13.0 53 +26 +35 жарко 1017.0 955.0
ЮВ 3 10 км 5/5 900 м +24.0 +9.0 38 +25 +31 комфорт 1016.0 954.2
В 2 10 км 2/2 1050 м +25.0 +10.0 39 +26 +34 жарко 1015.0 953.5
В 6 10 км 2/2 1050 м +24.0 +13.0 50 +26 +28 жарко 1015.0 953.4
В 4 10 км 2/2 1200 м +23.0 +13.0 53 +26 +27 жарко 1014.0 952.2
ЮВ 6 10 км 2/2 1500 м +22.0 +13.0 57 +25 +25 комфорт 1014.0 952.0
В 3 10 км 2/2 1500 м +20.0 +14.0 68 +22 +22 комфорт 1015.0 952.6
В 3 10 км ясно +18.0 +12.0 68 +18 +18 1015.0 952.1
нст 1 10 км ясно +17.0 +12.0 72 +18 +18 1016.0 952.8
ЮЗ 2 10 км ясно +17.0 +12.0 72 +17 +17 1016.0 952.8
нст 1 10 км ясно +15.0 +12.0 82 +16 +16 1016.0 952.4
СЗ 2 10 км 5/0 2400 м
[Ac]
+14.0 +12.0 88 +13 +13 1016.0 952.2
СЗ 2 10 км 5/0 2100 м
[Ac]
+14.0 +12.0 88 +13 +13 1016.0 952.2
нст 1 10 км 8/2 1200 м
[Ac]
+15.0 +12.0 82 +16 +16 1016.0 952.4
СЗ 3 10 км 8/5 1050 м
[Ac]
+15.0 +11.0 77 +14 +14 1016.0 952.4
С 3 10 км 5/5 1020 м
[Ac]
+15.0 +12.0 82 +14 +14 1016.0 952.4
ЮЗ 2 10 км 8/8 1380 м +14.0 +12.0 88 +13 +14 1017.0 953.1
СВ 1 10 км 5/5 1410 м +14.0 +12.0 88 +14 +16 1017.0 953.1
нст 1 10 км 2/2 1500 м +17.0 +12.0 72 +18 +23 1017.0 953.8
С 3 10 км 5/5 1800 м +18.0 +13.0 73 +18 +22 1017.0 954.0
С 4 10 км 5/5 1800 м +18.0 +13.0 73 +18 +22 1018.0 954.9
С 4 10 км 2/0 2400 м
[Ac]
+20.0 +13.0 64 +22 +32 комфорт 1017.0 954.4
С 4 10 км 2/2 1050 м +20.0 +13.0 64 +22 +32 комфорт 1017.0 954.4
С 4 10 км 5/5 1050 м +22.0 +14.0 60 +25 +32 комфорт 1017.0 954.8
С 4 10 км 5/5 900 м +21.0 +13.0 60 +24 +30 комфорт 1017.0 954.6
С 4 10 км 5/5 900 м +21.0 +12.0 56 +23 +28 комфорт 1017.0 954.6
В 5 10 км 5/5 1500 м +22.0 +10.0 46 +24 +26 комфорт 1016.0 953.8
Ю 7 10 км 8/8 900 м +20.0 +11.0 56 +21 +21 комфорт 1017.0 954.4
З 5 н/о 8/0 2100 м
[Ac]
+19.0 +13.0 68 +20 +20 1017.0 954.2
З 5 10 км 5/0 2700 м
[Ac]
+19.0 +12.0 64 +20 +20 1017.0 954.2
З 4 10 км 2/0 2400 м
[Ac]
+17.0 +11.0 68 +17 +17 1018.0 954.7
СЗ 4 10 км 2/0 2400 м
[Ac]
+17.0 +11.0 68 +17 +17 1018.0 954.7
СЗ 3 10 км 8/0 2100 м
[Ac]
+16.0 +12.0 77 +16 +16 1019.0 955.4
СЗ 4 10 км 2/0 2100 м
[Ac]
+16.0 +9.0 63 +15 +15 1019.0 955.4
С 5 10 км ясно +15.0 +9.0 67 +14 +14 1019.0 955.1
нст 1 10 км ясно +13.0 +9.0 77 +13 +13 1019.0 954.7
С 2 10 км ясно +13.0 +9.0 77 +12 +12 1019.0 954.7
нст 1 10 км 2/0 2100 м
[Ac]
+13.0 +9.0 77 +13 +13 1019.0 954.7
нст 1 10 км 2/0 2250 м
[Ac]
+12.0 +9.0 82 +12 +12 1019.0 954.5
С 2 10 км 5/5 1200 м +12.0 +9.0 82 +11 +11 1020.0 955.4
нст 1 10 км 2/2 1500 м +12.0 +9.0 82 +12 +12 1020.0 955.4
С 1 10 км 2/2 1500 м +12.0 +10.0 88 +12 +14 1020.0 955.4
С 3 10 км ясно +15.0 +10.0 72 +14 +19 1020.0 956.1
нст 1 10 км ясно +17.0 +11.0 68 +18 +29 1020.0 956.6
ЮВ 2 10 км 2/2 1200 м +19.0 +11.0 60 +20 +31 1020.0 957.0
нст 1 10 км 2/2 1200 м +20.0 +12.0 60 +23 +39 комфорт 1020.0 957.2
СЗ 2 10 км 2/2 1200 м +21.0 +11.0 53 +24 +39 комфорт 1020.0 957.4
С 2 10 км 5/0 2460 м
[Ac]
+22.0 +10.0 46 +24 +36 комфорт 1019.0 956.6
нст 2 10 км 2/2 1500 м +23.0 +10.0 44 +25 +39 комфорт 1019.0 956.8
С 5 10 км 2/2 1500 м +23.0 +9.0 41 +24 +31 комфорт 1018.0 955.9
С 5 10 км 2/2 1500 м +23.0 +8.0 38 +24 +28 комфорт 1017.0 954.9
С 4 10 км 2/2 1500 м +24.0 +6.0 31 +24 +27 комфорт 1017.0 955.1
С 6 10 км 2/2 1500 м +24.0 +5.0 29 +24 +25 комфорт 1017.0 955.1
С 5 10 км ясно +22.0 +9.0 43 +23 +24 комфорт 1017.0 954.7
СЗ 3 10 км 2/2 1500 м +19.0 +9.0 52 +20 +20 1017.0 954.1
С 2 10 км ясно +16.0 +9.0 63 +16 +16 1018.0 954.4
З 3 10 км ясно +15.0 +9.0 67 +14 +14 1018.0 954.2
З 2 10 км ясно +13.0 +8.0 72 +12 +12 1018.0 953.8
СЗ 3 10 км ясно +13.0 +8.0 72 +12 +12 1018.0 953.8
нст 1 10 км ясно +11.0 +8.0 82 +11 +11 1018.0 953.3
нст 1 10 км ясно +10.0 +7.0 82 +10 +10 1017.0 952.1
СВ 2 10 км ясно +10.0 +8.0 87 +8 +8 1017.0 952.2
нст 1 10 км ясно +9.0 +7.0 87 +8 +8 1017.0 951.9
нст 1 10 км ясно +8.0 +7.0 93 +7 +7 1016.0 950.8
нст 1 10 км 2/0 2400 м
[Ac]
+9.0 +7.0 87 +8 +9 1016.0 951.0
нст 1 10 км 2/0 2550 м
[Ac]
+11.0 +9.0 87 +11 +13 1016.0 951.5
С 2 10 км 2/0 2400 м
[Ac]
+13.0 +9.0 77 +12 +17 1016.0 951.9
нст 1 10 км 2/2 1500 м +16.0 +10.0 68 +17 +26 1016.0 952.6
нст 1 10 км 2/2 1500 м +19.0 +11.0 60 +21 +34 комфорт 1016.0 953.2
нст 1 10 км 2/2 1500 м +21.0 +11.0 53 +24 +40 комфорт 1015.0 952.7
СЗ 3 10 км 5/0 2400 м
[Ac]
+22.0 +9.0 43 +23 +34 комфорт 1015.0 952.9
С 5 10 км ясно +11.0 +9.0 87 +8 +8 1020.0 955.2
Местоположение метеостанции Приштина (Косово): широта 42.58 долгота 21.03 высота над уровнем моря 545 м.
В архиве по умолчанию представлена погода в Приштине за последнюю неделю. Архивные данные за месяц целиком и за предыдущие месяцы, начиная с января 2011 года, Вы можете получить, выбрав интересующий диапазон дат из раскрывающегося списка и нажав кнопку "Найти!".
*Определитесь, кто Вы:
Внимание! Время в таблицах - всемирное. Для получения местного времени необходимо прибавить поправку, которая равна 1 ч.
Некоторые строки с данными для отдельных станций могут быть выделены курсивом. Это означает, что фактические данные отсутствуют по различным причинам, а приведенные значения являются расчетными модельными данными для данного пункта наблюдений.
Смотрите также архив погоды в соседних городах и на ближайших метеорологических станциях:
Партнеры нашего сайта:      
Пояснения к столбцам:
  • Ветер - указаны скорость ветра в м/с - средняя за 10 мин, порывы в срок и между сроками (в фигурных скобках) и направление, откуда дует ветер: С - северный,
  • СВ - северо-восточный, В - восточный, ЮВ - юго-восточный, Ю - южный, ЮЗ - юго-западный, З - западный, СЗ - северо-западный.
  • Видимость - горизонтальная дальность видимости в метрах или километрах. При видимости от 1 до 10 км при отсутствии осадков обычно наблюдается дымка, при ухудшении видимости до 1 км и менее - туман. В сухую погоду видимость может ухудшаться дымом, пылью или мглою.
  • Явления - указаны атмосферные явления, наблюдавшиеся в срок или в последний час перед сроком; фигурными скобками обозначены явления, наблюдавшиеся между сроками (за 1-3 часа до срока); квадратными скобками обозначены град или гололедные отложения с указанием их диаметра в мм.
  • Облачность - указаны через наклонную черту общая и нижняя облачность в баллах и высота нижней границы облаков в метрах; квадратными скобками обозначены формы облаков: Ci - перистые, Cs - перисто-слоистые, Cc - перисто-кучевые, Ac - высококучевые, As - высокослоистые, Sc - слоисто-кучевые, Ns - слоисто-дождевые, Cu - кучевые, Cb - кучево-дождевые. Подробнее классификацию облаков см. в Атласе облаков (PDF).
  • T - Температура воздуха - температура, измеренная на высоте 2 м над землей.
  • Td - Температура точки росы - температура, при понижении до которой содержащийся в воздухе водяной пар достигнет насыщения.
  • f - Относительная влажность воздуха - влажноcть воздуха, измеренная на высоте 2 м над землей.
  • Te - Эффективная температура - температура, которую ощущает одетый по сезону человек в тени. Характеристика душности погоды. При расчете учитывается влияние влажности воздуха и скорости ветра на теплоощущения человека.
  • Tes - Эффективная температура на солнце - температура, которую ощущает человек, с поправкой на солнечный нагрев. Характеристика знойности погоды. Зависит от высоты солнца над горизонтом, облачности и скорости ветра. Ночью, в пасмурную погоду, а также при ветре 12 м/с и более поправка равна нулю.
  • P - Атмосферное давление - приведенное к уровню моря атмосферное давление.
  • Po - Атмосферное давление - измеренное на уровне метеостанции атмосферное давление.
  • Tmin - Минимальная температура - минимум температуры воздуха на высоте 2 м над землей.
  • Tmax - Максимальная температура - максимум температуры воздуха на высоте 2 м над землей.
  • R - Количество осадков - Количество выпавших осадков за период времени, мм. При наведении курсора мыши на число - период времени, за который выпало указанное количество осадков.
  • R24 - Количество осадков - Количество выпавших осадков за 24 часа, мм.
  • S - Снежный покров - Высота снежного покрова, см. При наведении курсора мыши на число - состояние снежного покрова и степень покрытия местности в баллах.